Find Kosmos-2015

NORAD ID: 19909 Int'l Des: 1989-025 Owner: UNKS Country: SU operational
LEOCIRCULAR

Aktuelle Ansicht

3D-Globus wird geladen...

About Kosmos-2015

Kosmos-2015 (NORAD 19909) is a satellite launched Mar 24, 1989 by UNKS of SU. It operates in LEO, CIRCULAR orbit with a mass of 60.00 kg.

Nächste Überflüge

Passes for default location (London). Set your location on the main map for personalized predictions.

Höhenverlauf

Loading altitude history...

Zweizeiliger Elementsatz

1 19909U 89025H 26195.53532794 -.00000011 00000-0 34801-4 0 9996
2 19909 74.0103 108.7826 0025627 188.0045 344.4883 12.44067039694183
Epoch: 14. Juli 2026 • Age: 8 hours

Aktueller Status

Höhe 1477.1 km
Apogäum / Perigäum N/A
Geschwindigkeit 7.13 km/s
Subsatellitenpunkt -20.56°S, 50.95°E
Startdatum 24. März 1989
Alter 37.3 years
Typ other

Technische Details

Klassifizierung Payload
Masse 60.00 kg
Trockenmasse 60.00 kg
Gesamtmasse 60.00 kg
Länge 0.80 m
Durchmesser 0.80 m
Spannweite 0.80 m
Form Poly
Hersteller NPOPM
Bus-Typ Strela-1 11F625
Phasenstatus In Orbit
Besitzer/Staat UNKS/SU

Most Searched